Temperature
14 14 15 15 13 11 13 13 14 14 15 16 17 17 16 16 16 17 18 18 17 17 16 16 16 16 16 16 16 16 16 16 16 16 16 16 16 16 16 16 16 15 15 15 15 15 15 15 15
14 14 14 14 11 12 12 13 13 14 16 16 16 17 16 16 17 17 17 17 17 17 16 16 16 16 16 16 16 16 16 16 16 16 16 16 16 16 16 16 16 15 15 15 15 15 15 15 15
13 14 14 11 11 12 13 13 13 15 16 16 16 16 16 16 16 17 17 17 17 16 16 16 16 16 16 16 16 16 16 16 16 16 16 16 16 16 16 16 15 15 15 15 15 15 15 15 15
13 13 12 10 11 12 13 13 13 14 15 15 15 15 16 16 16 16 17 17 16 16 16 16 15 16 16 16 16 16 16 16 16 16 16 16 16 15 15 15 15 15 15 15 15 15 15 15 15
12 12 10 10 11 12 12 13 14 14 14 15 15 14 15 16 16 16 16 16 16 16 16 15 15 15 15 15 16 16 16 16 16 16 16 16 16 15 15 15 15 15 15 15 15 15 15 14 14
12 10 10 10 11 12 12 13 14 13 14 14 14 14 14 15 16 16 16 16 16 15 15 15 15 15 15 15 15 16 16 16 16 16 16 15 15 15 15 15 15 15 15 15 15 15 14 14 14
10 9 9 10 11 11 12 13 13 13 13 14 14 13 14 15 15 15 15 15 15 15 15 15 15 15 15 15 15 15 15 15 15 16 15 15 15 15 15 15 15 15 14 14 14 14 14 14 14
10 8 9 9 10 11 12 13 13 13 13 14 14 13 13 14 14 15 15 14 14 14 14 14 14 14 14 14 15 15 15 15 15 15 15 15 15 15 14 14 14 14 14 14 14 14 14 13 13
10 8 9 9 10 11 12 12 13 13 13 13 14 14 14 14 14 14 14 14 14 14 14 14 14 14 14 14 14 15 15 15 15 15 15 15 14 14 14 14 14 14 14 14 14 13 13 13 13
9 8 9 10 10 10 11 11 12 12 12 12 13 13 14 14 13 14 14 13 13 13 13 14 14 13 13 14 14 14 14 15 15 15 14 14 14 14 14 14 14 14 14 13 13 13 13 13 13
7 7 8 9 9 10 10 10 11 11 10 11 12 12 12 13 13 13 13 13 13 13 13 13 13 13 13 13 13 14 14 14 14 14 14 14 14 14 14 14 13 13 13 13 13 13 13 13 13
7 7 8 8 9 9 9 9 10 10 10 12 12 12 12 12 12 12 12 13 13 13 13 13 13 13 13 13 13 13 13 14 14 14 14 13 13 13 13 13 13 13 13 13 13 13 12 12 12
6 7 8 8 8 9 9 9 9 9 10 11 11 11 11 11 12 12 12 12 12 12 12 13 12 13 13 12 13 13 13 13 13 13 13 13 13 13 13 13 13 13 12 12 12 12 12 12 12
7 7 7 8 8 8 8 8 8 9 10 10 10 10 10 11 11 11 12 12 12 12 12 12 12 12 12 12 12 12 12 13 13 13 13 13 13 13 13 13 12 12 12 12 12 12 12 12 12
7 6 7 7 7 8 8 8 8 9 9 10 10 10 10 10 11 11 11 12 12 12 12 12 12 12 12 12 12 12 12 12 12 12 13 13 13 12 12 12 12 12 12 12 12 11 11 11 11
6 6 6 7 7 7 8 7 8 9 9 9 9 9 9 10 10 11 11 11 11 11 11 11 11 12 12 12 12 12 12 12 12 12 12 12 12 12 12 12 12 12 12 11 11 11 11 11 11
5 5 5 6 7 7 7 6 7 8 8 8 8 8 9 9 10 10 11 11 11 11 11 11 11 11 11 11 11 11 12 12 12 12 12 12 12 12 12 12 12 11 11 11 11 11 11 11 11
5 5 5 5 6 6 6 6 6 7 7 7 7 8 8 8 9 10 10 10 11 11 11 11 11 11 11 11 11 11 11 11 11 11 11 11 11 11 11 11 11 11 11 11 11 11 10 10 10
5 5 5 5 6 6 5 5 6 6 6 6 6 7 7 8 9 9 10 10 10 10 10 10 10 10 10 11 11 11 11 11 11 11 11 11 11 11 11 11 11 11 11 11 11 10 10 10 10
5 5 4 5 6 6 5 5 5 6 6 6 6 6 7 7 8 9 9 9 10 10 10 10 10 10 10 10 11 10 10 10 10 10 10 11 10 10 11 11 11 10 10 10 10 10 10 10 9
4 4 4 5 5 5 5 5 6 6 6 6 6 6 6 7 7 8 8 9 9 9 9 10 10 10 10 10 10 10 10 10 10 10 10 10 10 10 10 10 10 10 10 10 10 10 9 9 9
4 5 5 5 4 4 5 5 5 5 5 5 5 6 6 7 7 7 8 8 8 9 9 9 9 9 10 10 10 10 10 10 10 10 10 10 10 10 10 10 10 10 10 10 9 9 9 9 9
4 5 4 4 4 3 4 4 5 4 5 4 4 5 6 6 7 7 7 7 8 8 8 9 9 9 9 9 9 9 9 9 9 9 9 9 9 9 9 9 9 9 9 9 9 9 9 8 8
4 4 4 3 3 4 4 4 4 4 4 4 4 5 5 6 6 7 7 7 7 7 8 8 8 8 9 9 9 9 9 9 9 9 9 9 9 9 9 9 9 9 9 9 9 8 8 8 8
4 3 3 3 3 3 4 4 4 4 3 3 4 4 5 5 6 6 6 7 7 7 7 7 8 8 8 8 8 8 8 8 8 8 8 8 8 8 8 8 9 8 8 8 8 8 8 8 7
3 3 3 4 3 3 3 4 4 3 3 4 4 4 4 5 5 5 6 6 6 7 7 7 7 7 7 7 8 8 8 8 8 8 8 8 8 8 8 8 8 8 8 8 8 7 7 7 7
3 2 3 2 2 2 3 3 3 3 3 3 3 4 4 4 5 5 5 6 6 6 6 6 7 7 7 7 7 7 7 7 7 7 7 7 7 7 7 7 7 7 7 7 7 7 7 7 6
3 2 1 2 3 3 3 3 3 2 2 2 2 3 3 4 4 5 5 5 6 6 6 6 6 6 6 6 6 7 7 7 7 7 7 7 7 7 7 7 7 7 7 7 7 6 6 6 6
2 2 1 1 2 3 3 4 3 2 2 2 2 3 3 3 4 4 5 5 5 5 5 5 5 5 5 6 6 6 6 6 6 6 6 6 6 6 6 6 6 6 6 6 6 6 6 6 5
2 1 1 2 1 1 1 3 3 1 1 1 2 2 3 3 4 4 4 4 4 4 4 4 5 5 5 5 5 5 5 5 6 5 5 5 5 6 6 5 6 6 6 5 5 5 5 5 5
Wind_Speed
10 6 2 3 4 2 4 5 3 2 2 2 2 3 5 5 4 3 0 6 8 9 11 14 15 15 15 15 14 14 14 14 14 14 15 15 15 14 14 14 14 14 14 14 14 14 15 15 15
5 3 4 4 3 3 5 4 5 5 3 0 1 1 2 2 0 2 2 5 9 10 11 13 16 16 16 15 15 14 14 14 14 14 14 14 14 14 13 14 14 14 14 14 14 14 14 14 14
3 3 3 3 3 7 5 3 5 3 2 1 0 0 2 2 1 2 3 7 9 8 10 13 16 16 16 15 15 15 14 14 13 13 13 13 13 13 13 13 14 14 14 14 13 13 13 13 13
2 3 3 2 7 7 4 2 2 2 2 1 2 0 1 1 1 2 7 9 9 8 9 13 16 16 15 15 15 15 14 13 13 13 12 13 13 13 13 13 13 13 13 13 13 13 13 12 12
3 3 2 4 8 4 3 4 3 1 2 1 1 1 1 3 2 5 8 9 10 8 9 12 15 15 15 14 14 14 14 13 13 13 12 12 13 13 13 13 13 12 12 12 12 12 12 12 12
2 2 3 7 8 4 3 3 2 2 2 1 1 2 2 2 2 5 7 8 8 9 8 11 14 14 14 14 14 14 14 14 13 12 12 12 13 13 13 12 12 12 11 11 11 12 11 11 11
2 2 4 5 5 4 3 2 2 3 3 3 2 2 1 1 1 5 6 7 7 7 7 8 11 12 13 13 13 13 13 13 13 12 12 11 12 12 13 12 12 11 11 10 10 11 11 11 10
3 2 3 4 4 4 2 2 2 3 4 2 2 4 3 2 3 6 6 6 6 5 6 6 7 9 10 10 12 13 13 12 12 12 12 11 11 11 11 11 11 11 10 10 9 9 10 10 10
2 1 5 4 4 2 2 2 3 2 1 1 1 2 1 3 7 8 6 4 5 4 4 5 6 6 8 8 9 11 12 11 11 10 11 10 10 10 9 10 10 10 9 9 9 9 9 10 9
2 3 5 2 1 1 4 3 4 2 2 1 3 4 2 6 7 9 8 8 7 5 4 5 5 6 7 7 7 7 8 9 9 9 9 9 9 9 9 10 10 10 9 9 9 9 9 8 8
1 3 2 2 3 3 5 6 4 1 3 3 3 2 2 5 6 7 8 8 7 6 5 4 5 6 6 5 6 5 6 7 7 8 9 9 8 8 8 7 7 8 8 8 8 8 8 8 7
1 2 2 3 4 4 5 5 5 3 5 4 3 3 4 4 5 6 7 7 6 6 5 5 5 5 5 5 5 5 4 5 5 7 9 8 6 5 5 5 6 6 7 7 7 6 6 7 6
1 2 3 4 5 5 5 6 5 7 6 4 1 1 4 4 4 3 4 5 5 5 5 5 5 5 5 5 4 4 4 4 5 7 8 8 6 4 4 5 5 6 6 6 6 5 5 4 5
2 2 3 4 5 5 5 7 5 7 3 1 0 2 4 4 3 2 2 3 4 5 5 5 6 5 5 4 4 4 4 5 5 6 8 9 8 6 4 4 4 5 5 6 6 5 4 3 3
1 2 4 3 4 3 4 7 6 7 3 2 2 2 3 3 2 3 3 4 5 5 5 5 5 5 5 4 4 5 5 5 4 5 8 9 8 8 6 4 3 4 6 6 6 5 4 2 2
2 1 3 3 2 3 1 8 6 4 2 3 3 2 3 3 3 3 3 3 3 4 5 5 5 4 4 3 3 4 5 5 4 5 6 7 8 9 7 4 3 5 6 5 4 3 2 1 1
2 1 4 5 2 2 2 7 7 5 2 3 3 2 3 3 3 2 2 2 3 3 4 5 4 5 4 3 3 3 4 4 4 5 5 6 7 9 8 5 5 6 5 3 3 2 2 1 1
2 2 4 5 4 2 4 8 9 6 3 3 3 2 3 3 4 3 2 2 2 3 3 4 4 4 4 3 2 2 2 2 3 4 5 6 7 8 7 5 6 6 4 3 3 2 1 1 1
3 3 6 7 4 3 5 9 10 6 4 4 3 3 4 4 4 2 1 2 2 2 3 4 4 3 4 3 3 3 2 2 2 3 4 5 6 6 6 5 5 5 4 4 4 2 2 1 1
3 5 6 6 4 3 5 9 8 5 5 4 4 4 4 4 4 3 2 1 2 3 4 4 4 4 4 3 3 2 2 1 2 2 2 4 5 5 6 5 5 5 4 4 3 3 2 1 1
4 5 5 5 6 3 4 7 5 4 3 3 4 4 3 3 3 3 2 1 1 1 3 4 4 4 3 3 3 3 3 2 1 1 1 2 4 5 5 5 5 4 4 4 4 4 4 3 0
5 4 5 5 3 4 1 4 5 4 4 4 5 4 3 3 2 2 2 2 1 2 2 2 3 3 3 4 4 5 4 3 3 1 1 2 3 4 5 5 5 4 3 4 4 3 3 4 3
4 3 3 4 3 4 3 3 6 2 5 7 6 5 4 3 3 2 2 2 2 1 1 1 2 3 3 3 4 5 3 2 1 2 2 1 2 3 4 4 4 4 3 3 3 3 3 3 3
3 2 2 1 0 4 5 4 6 4 6 6 6 5 3 3 3 3 2 2 2 1 0 1 1 2 3 3 4 5 5 3 3 2 3 2 1 1 2 3 3 3 3 3 3 3 3 3 3
2 2 3 3 2 5 3 3 7 5 4 5 5 4 3 3 2 2 3 2 2 1 0 0 1 1 1 3 4 5 5 5 5 4 4 3 2 2 2 2 3 3 3 3 3 2 3 3 4
1 3 3 3 4 4 2 5 6 4 4 3 3 2 2 2 2 3 4 3 3 2 1 0 1 1 1 2 3 3 4 3 3 3 3 3 3 3 2 2 2 3 4 3 3 2 2 3 3
1 2 2 2 1 2 4 6 7 4 5 4 3 3 3 3 3 4 4 3 2 2 2 2 2 2 2 2 2 2 3 3 3 3 2 2 2 2 2 2 2 2 3 3 3 3 3 2 3
2 3 2 2 2 3 5 5 5 6 5 5 4 4 4 4 4 4 4 3 2 2 2 1 2 2 2 1 1 1 3 3 3 3 3 3 2 2 3 3 2 2 2 3 3 3 3 3 3
1 1 1 1 2 3 4 6 3 4 4 4 5 5 5 4 4 4 3 2 2 2 1 1 1 1 1 1 1 1 1 2 3 3 3 3 3 3 3 3 3 3 3 3 4 4 4 4 3
3 3 3 2 3 3 3 7 3 2 3 4 6 6 5 4 4 4 2 1 1 1 1 1 1 1 1 1 1 1 1 1 2 2 2 3 3 3 3 3 3 2 2 3 3 4 4 4 4
Wind_Direction
337 344 39 55 62 65 224 236 227 238 237 242 194 164 169 170 173 204 15 142 134 147 156 157 152 147 142 136 131 127 121 118 116 117 118 118 115 114 114 111 108 105 103 101 101 101 100 97 95
332 355 49 68 129 205 244 234 226 225 216 202 49 119 133 228 229 123 124 150 142 147 151 155 153 150 145 139 134 130 125 121 119 117 118 117 118 117 115 113 109 106 104 100 99 101 101 99 97
346 40 87 105 174 201 223 235 232 262 255 169 107 44 162 219 199 172 165 147 139 144 148 153 150 151 147 142 138 135 130 126 122 120 120 119 119 119 116 113 109 107 104 103 101 101 102 101 99
48 51 69 149 218 221 209 253 260 279 301 341 139 342 290 329 210 172 144 141 140 143 145 151 149 149 148 146 142 138 134 131 127 125 122 124 120 120 118 114 111 109 107 105 105 104 101 102 102
55 95 137 224 234 237 235 283 289 267 273 305 148 180 279 340 31 121 139 145 146 144 142 150 148 148 147 146 146 142 138 134 131 129 126 128 123 120 120 117 114 111 110 108 106 106 104 101 102
56 103 172 222 236 252 256 279 302 287 277 304 142 170 251 338 74 132 143 147 147 146 143 149 148 147 151 149 145 145 142 138 135 131 130 128 129 124 120 119 116 112 113 112 110 108 106 103 102
121 143 199 214 235 256 260 281 253 266 269 251 182 156 256 297 145 138 137 137 137 138 138 138 145 147 151 150 147 143 143 143 139 135 133 127 129 128 125 122 117 113 110 111 113 112 109 105 102
121 129 214 217 221 249 294 296 258 234 253 261 156 165 217 229 145 124 119 126 133 134 135 134 135 139 140 145 147 144 141 139 139 135 132 127 128 128 128 126 124 120 117 112 111 115 114 106 103
94 162 222 214 209 246 323 300 308 308 235 295 269 235 252 149 137 123 119 118 137 141 139 137 132 128 132 135 140 142 140 136 131 131 131 127 125 124 124 125 125 122 120 117 114 109 115 111 104
109 203 222 222 217 289 315 303 302 336 325 325 330 335 97 139 147 148 153 159 162 164 158 147 142 136 132 136 129 132 132 130 128 127 127 126 124 123 123 123 125 124 120 118 116 113 105 107 102
131 200 229 305 324 316 308 308 314 269 270 257 275 292 171 160 164 170 171 172 174 172 165 151 149 144 139 131 129 125 127 126 127 129 127 123 122 121 117 115 114 113 111 107 106 102 102 102 102
159 249 254 294 315 320 306 304 305 267 260 286 263 206 167 173 182 186 182 176 169 166 168 154 144 145 142 137 137 133 129 132 137 141 138 132 125 122 124 119 116 112 113 111 108 107 105 104 104
230 263 293 292 298 295 298 287 280 277 292 315 337 157 171 183 200 198 183 171 163 166 169 164 153 152 146 142 148 145 145 149 155 154 151 148 143 136 131 131 126 123 125 124 119 116 110 103 102
232 264 300 307 298 295 287 287 281 281 304 337 194 201 197 194 202 194 181 175 176 174 174 164 162 160 151 159 160 161 158 160 161 166 165 160 156 152 139 139 135 134 137 135 130 126 122 116 114
295 321 321 299 278 282 296 291 261 274 276 254 237 237 228 223 208 201 203 195 185 181 170 169 172 163 160 163 169 163 166 164 168 172 171 167 163 160 156 148 151 148 143 134 123 114 109 102 97
21 345 295 303 297 285 258 269 280 285 247 243 238 230 242 242 231 219 211 202 186 180 174 172 171 163 163 165 169 166 169 168 173 175 174 175 172 166 160 157 157 156 145 136 133 132 116 103 99
24 283 274 304 313 302 220 266 296 302 266 267 263 255 252 249 257 247 229 212 191 185 183 174 166 166 165 165 164 167 168 171 173 177 175 179 181 175 167 163 159 156 145 142 152 134 136 144 132
231 252 275 283 308 312 266 273 294 306 286 261 264 267 268 257 255 253 246 228 195 181 184 168 158 160 157 151 148 150 154 170 170 182 187 182 183 179 169 163 163 158 157 159 154 144 108 127 147
208 235 273 278 284 291 264 278 288 293 289 272 268 272 269 266 267 265 254 229 182 162 169 168 158 160 157 159 162 169 188 189 181 190 195 187 181 179 172 171 169 166 170 175 164 155 132 82 72
240 257 272 289 298 283 275 277 277 270 266 258 257 273 267 287 303 294 289 246 189 188 181 177 175 174 173 175 173 178 164 176 178 175 186 188 179 179 180 174 181 176 169 161 167 163 154 110 98
261 241 255 276 314 309 283 285 268 262 258 277 274 272 260 246 262 288 288 275 226 208 209 190 184 178 172 160 144 122 107 107 117 168 196 193 183 178 180 180 179 181 176 178 182 179 171 176 196
267 257 258 277 304 294 286 279 273 268 275 284 287 276 258 259 267 284 305 310 286 254 249 200 177 164 164 158 152 152 168 186 201 186 204 190 183 181 179 180 178 181 181 178 185 182 182 169 182
244 279 272 274 252 283 270 242 277 283 269 274 276 272 262 260 259 276 287 280 272 266 253 194 164 165 164 164 169 170 174 177 159 138 151 187 183 182 173 176 179 182 183 184 178 173 170 178 181
257 334 333 319 319 270 248 217 273 252 248 269 273 279 274 278 277 276 279 287 291 309 308 151 158 177 177 177 177 178 181 164 150 165 183 189 201 202 177 173 184 184 181 187 183 178 174 183 181
38 53 359 346 326 257 258 233 255 270 260 255 260 271 272 266 271 280 282 287 289 293 283 59 151 218 209 194 190 187 187 181 182 189 196 195 200 224 213 188 184 185 182 175 164 176 184 190 191
242 165 180 234 248 285 292 248 263 281 286 282 262 268 285 290 286 285 270 255 259 260 248 210 213 252 252 226 217 195 184 188 192 196 196 203 208 212 201 181 180 182 175 172 165 185 194 188 197
164 195 200 164 283 276 273 285 298 306 313 322 313 299 293 285 283 284 284 273 258 249 244 225 225 238 247 248 229 191 186 186 185 190 190 194 198 193 167 172 173 177 176 174 172 189 199 196 209
168 154 98 154 232 273 284 276 277 293 294 308 307 306 299 296 291 293 286 282 285 273 262 251 228 232 248 252 229 207 194 190 185 178 187 193 193 181 167 177 183 181 181 179 181 191 193 192 211
89 105 135 169 187 200 276 275 259 258 274 283 295 301 303 299 293 298 291 283 299 319 311 300 288 275 272 265 276 219 199 182 176 177 184 190 188 181 178 187 193 191 196 190 191 197 194 195 207
189 191 177 191 243 216 241 274 301 282 312 307 301 307 309 309 306 306 298 311 331 344 343 337 332 314 282 241 230 239 206 174 173 180 187 185 190 188 184 183 190 199 202 197 198 205 203 203 208
Height
1496 1497 1498 1500 1504 1512 1512 1506 1501 1500 1499 1497 1497 1498 1499 1500 1504 1507 1501 1500 1502 1504 1507 1511 1513 1515 1517 1518 1520 1521 1523 1523 1525 1526 1527 1528 1529 1530 1531 1531 1532 1533 1533 1534 1534 1535 1535 1535 1536
1495 1497 1499 1500 1507 1515 1510 1502 1500 1497 1496 1496 1496 1496 1497 1497 1498 1498 1497 1499 1502 1505 1507 1510 1513 1515 1517 1518 1520 1521 1523 1524 1525 1526 1527 1528 1529 1530 1531 1532 1533 1534 1534 1535 1535 1535 1536 1536 1537
1495 1496 1499 1501 1507 1508 1504 1499 1497 1495 1495 1495 1496 1496 1497 1497 1497 1497 1498 1499 1502 1505 1507 1510 1512 1515 1517 1518 1520 1521 1523 1524 1525 1526 1527 1529 1530 1531 1532 1532 1533 1534 1535 1535 1536 1536 1537 1537 1537
1495 1497 1499 1503 1503 1499 1498 1496 1496 1495 1495 1495 1495 1496 1496 1497 1497 1497 1498 1500 1502 1505 1507 1510 1512 1514 1516 1518 1520 1521 1523 1524 1525 1526 1528 1529 1530 1531 1532 1533 1534 1534 1535 1536 1536 1537 1537 1537 1538
1495 1496 1501 1503 1499 1497 1496 1495 1495 1495 1495 1495 1495 1495 1495 1496 1496 1496 1498 1500 1502 1504 1507 1510 1512 1514 1516 1518 1520 1521 1523 1524 1525 1526 1527 1529 1530 1531 1532 1533 1534 1535 1535 1536 1536 1537 1537 1538 1538
1495 1495 1503 1502 1497 1496 1495 1494 1495 1495 1494 1494 1495 1495 1495 1496 1495 1496 1498 1500 1502 1504 1507 1509 1512 1514 1516 1518 1519 1521 1522 1524 1525 1526 1527 1529 1530 1531 1532 1533 1534 1535 1535 1536 1536 1537 1537 1538 1538
1495 1497 1499 1499 1498 1496 1495 1494 1494 1494 1494 1494 1494 1495 1494 1495 1496 1496 1498 1500 1502 1504 1506 1509 1511 1513 1515 1517 1519 1520 1522 1524 1525 1526 1527 1528 1530 1531 1532 1533 1533 1534 1535 1536 1536 1537 1537 1537 1538
1494 1497 1498 1499 1498 1496 1494 1493 1493 1493 1493 1493 1494 1494 1493 1494 1495 1496 1498 1500 1502 1504 1506 1508 1510 1512 1514 1516 1518 1520 1522 1523 1524 1526 1527 1528 1529 1531 1532 1533 1533 1534 1535 1535 1536 1536 1537 1537 1537
1494 1500 1498 1497 1497 1496 1494 1494 1493 1492 1492 1492 1493 1493 1493 1493 1494 1495 1497 1500 1502 1504 1505 1508 1510 1512 1514 1515 1517 1519 1521 1523 1524 1525 1527 1528 1529 1530 1531 1532 1533 1534 1534 1535 1535 1536 1536 1537 1537
1495 1498 1495 1495 1495 1494 1494 1494 1493 1492 1491 1491 1491 1491 1491 1492 1493 1494 1495 1497 1499 1501 1504 1506 1508 1510 1513 1514 1516 1518 1520 1521 1523 1524 1526 1527 1528 1529 1531 1532 1533 1533 1534 1534 1535 1535 1535 1536 1536
1495 1496 1496 1495 1494 1495 1494 1493 1493 1492 1491 1491 1491 1490 1490 1491 1492 1493 1494 1495 1497 1500 1502 1504 1507 1509 1511 1513 1515 1517 1519 1520 1522 1524 1525 1526 1527 1529 1530 1530 1531 1532 1533 1533 1534 1535 1535 1535 1535
1496 1496 1495 1495 1495 1494 1494 1493 1492 1491 1491 1490 1490 1489 1489 1489 1490 1492 1493 1494 1496 1498 1500 1502 1504 1507 1510 1512 1514 1516 1517 1519 1520 1522 1524 1525 1526 1527 1529 1530 1530 1531 1532 1533 1533 1533 1534 1534 1534
1496 1495 1494 1494 1494 1493 1493 1492 1492 1490 1489 1489 1488 1488 1488 1488 1490 1491 1492 1494 1495 1497 1498 1500 1503 1505 1508 1510 1512 1514 1516 1518 1519 1521 1522 1524 1525 1526 1527 1529 1530 1530 1531 1532 1532 1532 1532 1533 1533
1495 1494 1494 1493 1493 1492 1492 1489 1490 1487 1487 1486 1486 1486 1487 1487 1488 1489 1491 1492 1493 1495 1496 1498 1501 1503 1506 1508 1510 1512 1514 1516 1517 1519 1520 1522 1523 1525 1526 1527 1528 1529 1530 1530 1531 1531 1531 1531 1532
1495 1495 1493 1492 1492 1491 1491 1488 1486 1486 1485 1484 1485 1485 1486 1486 1487 1488 1489 1490 1491 1493 1495 1496 1499 1502 1504 1506 1509 1511 1512 1514 1515 1517 1518 1520 1522 1523 1525 1526 1526 1527 1528 1529 1529 1530 1530 1530 1530
1495 1497 1497 1492 1491 1490 1493 1488 1484 1484 1483 1482 1483 1484 1484 1485 1485 1486 1488 1489 1490 1491 1493 1495 1496 1499 1501 1504 1506 1509 1511 1512 1514 1515 1516 1518 1520 1521 1523 1524 1525 1526 1527 1527 1528 1528 1528 1528 1528
1500 1501 1498 1494 1490 1489 1490 1487 1483 1482 1481 1481 1481 1481 1482 1483 1483 1484 1486 1487 1488 1489 1491 1492 1494 1496 1499 1501 1504 1506 1508 1510 1512 1513 1514 1515 1517 1519 1521 1521 1522 1524 1524 1525 1526 1526 1526 1526 1526
1502 1501 1498 1496 1491 1490 1490 1486 1482 1481 1480 1480 1480 1480 1480 1480 1481 1482 1483 1485 1486 1487 1489 1490 1491 1494 1497 1499 1501 1503 1505 1507 1509 1510 1512 1513 1515 1516 1518 1519 1520 1521 1522 1523 1523 1523 1524 1524 1524
1499 1500 1499 1494 1491 1491 1488 1485 1482 1480 1479 1478 1478 1478 1478 1478 1479 1480 1481 1482 1483 1485 1486 1487 1488 1491 1493 1495 1497 1499 1501 1503 1505 1507 1509 1510 1512 1513 1515 1516 1517 1518 1519 1520 1520 1521 1521 1521 1521
1498 1499 1498 1493 1490 1489 1488 1484 1479 1477 1476 1475 1475 1476 1477 1476 1476 1477 1478 1479 1480 1482 1483 1484 1485 1487 1489 1491 1494 1496 1498 1500 1502 1505 1506 1507 1508 1510 1512 1513 1515 1516 1516 1517 1517 1518 1518 1518 1518
1497 1498 1497 1495 1490 1488 1488 1481 1477 1474 1474 1473 1473 1473 1473 1474 1474 1475 1475 1476 1478 1479 1480 1481 1482 1484 1486 1488 1491 1493 1495 1497 1498 1500 1502 1504 1505 1507 1509 1510 1511 1512 1513 1513 1514 1515 1515 1515 1516
1496 1494 1493 1493 1494 1493 1491 1487 1476 1474 1472 1471 1471 1471 1470 1471 1472 1473 1473 1474 1475 1476 1478 1479 1480 1481 1484 1486 1487 1489 1491 1492 1494 1496 1498 1501 1503 1504 1506 1507 1508 1509 1510 1510 1511 1511 1512 1512 1512
1495 1492 1493 1493 1494 1496 1492 1491 1478 1474 1473 1470 1468 1467 1467 1468 1469 1470 1471 1472 1474 1474 1476 1476 1477 1479 1481 1482 1484 1486 1488 1490 1492 1494 1496 1498 1499 1501 1502 1504 1505 1505 1506 1507 1507 1508 1508 1509 1509
1493 1493 1493 1495 1496 1496 1489 1491 1480 1476 1471 1468 1466 1465 1465 1465 1467 1468 1469 1471 1472 1472 1473 1473 1475 1476 1478 1479 1481 1483 1485 1486 1488 1490 1492 1493 1495 1497 1498 1500 1501 1502 1503 1503 1504 1504 1505 1505 1506
1495 1498 1501 1498 1501 1495 1488 1487 1478 1470 1468 1466 1465 1464 1463 1464 1465 1466 1467 1468 1469 1469 1470 1471 1472 1474 1475 1477 1478 1479 1481 1483 1484 1486 1488 1490 1491 1493 1494 1496 1497 1498 1499 1500 1501 1501 1501 1502 1502
1497 1499 1503 1500 1500 1495 1488 1484 1474 1469 1466 1464 1463 1463 1462 1463 1464 1464 1465 1466 1466 1467 1468 1469 1470 1471 1473 1474 1475 1477 1479 1480 1481 1483 1485 1486 1488 1489 1491 1492 1493 1494 1495 1496 1497 1497 1498 1498 1498
1497 1499 1499 1504 1505 1502 1491 1484 1473 1467 1465 1463 1462 1461 1461 1461 1462 1462 1462 1463 1463 1464 1465 1466 1467 1468 1470 1471 1473 1474 1475 1477 1478 1480 1482 1483 1484 1486 1487 1488 1489 1490 1491 1492 1493 1493 1494 1494 1494
1497 1498 1502 1503 1499 1496 1489 1485 1476 1470 1466 1464 1462 1460 1459 1459 1460 1460 1460 1460 1461 1461 1462 1464 1464 1465 1467 1468 1470 1471 1472 1473 1475 1476 1478 1479 1481 1482 1483 1485 1485 1486 1487 1488 1489 1489 1490 1490 1490
1499 1500 1501 1503 1502 1498 1494 1481 1470 1468 1466 1464 1462 1460 1459 1458 1458 1458 1457 1458 1458 1459 1460 1461 1462 1463 1464 1465 1466 1467 1469 1470 1471 1472 1474 1476 1477 1478 1479 1481 1482 1482 1483 1484 1485 1486 1486 1486 1487
1497 1498 1500 1500 1501 1502 1497 1482 1468 1467 1465 1463 1462 1459 1458 1457 1456 1455 1455 1456 1456 1457 1457 1458 1459 1460 1461 1462 1463 1464 1465 1467 1468 1469 1470 1472 1473 1475 1476 1477 1478 1479 1480 1480 1481 1482 1482 1483 1483